Theta_e
327 329 332 340 347 348 350 349 350 350 349 349 350 350 349 349 349 349 349 349 349 349 349 350 349 350 350 350 350 350 350 350 349 349 349 349 349 348 349 349 349 349 349 349 349 349 350 350 350 350 350 349 351 350 350 350 349 349 349 348 345 344 343 343 344 346 345 346 347 347 348 352 355 354 354 353 353 353 352 352 350 347 347 350 353
329 330 332 335 348 348 349 349 350 350 350 350 350 350 349 349 349 349 349 349 349 349 349 349 349 349 349 349 349 349 349 349 349 349 349 348 348 348 348 348 348 348 348 349 349 349 350 350 350 350 350 351 349 349 349 349 348 347 346 344 342 341 341 341 342 343 343 344 343 343 343 345 349 353 353 353 352 352 352 352 350 346 345 351 351
330 330 332 334 347 347 348 349 349 350 350 350 350 350 349 349 348 348 349 349 348 349 348 349 349 349 349 348 349 349 348 349 348 348 348 348 347 347 347 347 347 347 348 348 348 349 349 350 349 349 349 348 347 346 345 344 343 342 340 339 338 337 337 337 339 341 341 342 341 339 338 339 343 350 352 352 351 352 351 351 351 350 347 349 349
329 330 331 335 344 346 348 348 349 349 349 349 349 349 349 349 349 349 349 348 348 347 347 347 347 347 348 348 348 347 347 347 347 347 347 347 347 347 347 347 348 347 348 348 349 348 348 347 347 346 344 343 343 342 341 339 339 338 337 335 334 333 332 332 334 336 337 338 338 335 335 332 335 347 351 350 349 350 349 350 349 349 350 350 350
329 329 331 334 340 344 347 349 348 348 348 349 349 348 349 349 349 348 348 348 347 348 348 347 347 348 347 347 347 347 346 346 346 345 345 345 344 344 346 346 346 347 347 347 348 347 346 345 343 342 341 339 339 339 338 337 337 336 335 334 332 330 329 327 329 331 331 331 332 331 329 331 332 340 350 349 350 349 350 350 349 349 348 349 349
329 328 330 332 333 338 346 347 348 348 348 349 348 348 349 349 348 348 348 348 348 347 347 347 347 346 346 346 345 345 345 345 344 343 343 342 343 344 345 345 346 346 345 346 345 344 343 342 340 339 338 337 337 336 336 335 334 333 333 331 330 329 327 326 327 325 324 324 325 324 325 328 329 332 349 350 350 348 349 348 349 349 348 349 349
327 326 329 329 331 335 343 347 346 348 348 348 348 348 348 347 348 347 347 347 347 348 347 347 346 346 345 345 344 345 344 343 342 342 342 341 342 342 343 344 344 344 343 343 343 341 340 339 338 338 337 335 335 334 333 333 331 331 331 329 328 327 326 326 327 324 320 314 314 317 320 325 326 328 346 349 349 349 347 348 348 349 349 349 349
325 325 324 327 328 336 341 345 346 346 348 348 347 347 347 347 347 347 347 347 347 347 346 346 345 344 344 343 343 343 342 342 341 340 340 340 340 340 340 340 341 341 341 341 341 339 338 337 336 335 335 334 333 331 331 330 330 329 329 327 327 326 326 326 324 320 318 309 311 314 318 323 324 327 343 348 348 348 347 348 348 349 349 348 348
325 324 325 325 326 336 340 342 346 345 346 346 346 346 347 347 346 346 346 346 345 345 344 344 344 343 342 342 341 341 341 340 339 338 339 338 337 337 337 338 339 338 338 338 338 337 336 335 334 333 333 331 330 329 329 329 329 328 327 325 326 325 325 323 320 316 310 310 310 311 318 323 323 326 340 347 348 347 348 348 348 348 347 347 347
323 323 323 324 325 335 340 341 344 344 344 346 345 345 345 344 344 344 344 344 344 343 343 342 342 341 340 339 339 338 339 338 337 336 336 335 335 336 336 336 336 336 336 335 335 334 333 332 331 331 331 330 328 327 327 327 327 326 325 324 324 324 322 319 315 312 307 309 310 310 318 327 321 325 340 346 347 347 345 343 345 345 346 346 345
321 321 321 322 323 335 340 341 342 342 343 343 343 343 342 343 340 340 341 341 340 340 339 339 338 337 337 338 337 338 336 335 333 333 332 332 333 334 334 335 334 334 333 333 332 331 330 330 330 330 329 328 326 326 326 325 325 324 323 321 321 322 320 316 311 305 306 307 309 309 314 324 320 324 342 344 346 346 344 343 344 344 344 344 343
321 320 320 320 327 334 338 340 340 341 341 341 342 341 341 340 339 339 339 338 338 338 337 337 337 336 336 336 335 334 333 332 332 332 332 331 331 332 332 332 332 331 330 329 329 329 329 329 329 328 327 326 325 325 324 323 323 322 321 319 319 319 317 313 305 304 303 305 308 310 309 314 318 330 341 345 345 344 343 343 344 344 344 344 345
319 319 319 319 321 332 336 339 339 338 339 339 339 339 338 338 338 338 338 337 338 337 337 337 336 335 334 334 334 333 332 332 332 331 331 331 330 330 330 330 330 329 328 327 327 327 329 329 327 327 326 324 324 323 322 321 320 320 319 318 317 316 314 311 301 302 303 303 307 307 309 313 319 335 337 340 340 340 339 340 340 341 341 340 341
317 319 318 320 321 328 333 335 337 338 338 338 338 338 338 338 338 338 337 337 337 336 335 334 334 334 334 333 332 332 331 331 331 330 329 328 327 327 328 328 328 328 327 327 327 327 328 328 327 326 324 323 322 321 320 320 318 318 317 317 316 314 309 306 306 300 303 302 306 308 307 314 322 333 335 337 337 337 336 337 336 337 337 337 337
318 316 317 319 321 323 328 332 335 335 337 337 337 337 337 337 337 337 336 335 335 334 334 334 334 333 333 332 331 331 331 331 329 329 327 327 327 327 327 326 327 328 328 327 328 328 327 326 325 324 324 322 321 320 319 318 318 317 316 315 313 312 307 298 300 299 301 304 304 307 307 311 328 331 333 334 335 335 335 335 334 335 335 335 334
317 316 315 317 318 319 323 327 331 331 334 335 336 336 337 336 336 336 334 334 334 333 333 332 333 333 332 331 331 331 330 329 328 328 327 327 326 326 326 327 327 328 327 326 326 325 325 325 324 323 322 321 320 319 318 317 316 315 314 313 312 310 307 302 297 298 300 301 302 307 307 313 326 330 331 332 333 333 332 332 333 333 333 333 333
314 315 315 316 315 318 320 321 326 328 329 330 332 333 335 335 336 334 334 333 333 333 332 332 331 331 331 330 330 329 328 327 327 327 327 327 326 326 326 326 326 326 326 325 325 325 324 323 322 321 321 320 319 318 317 316 314 313 312 311 310 309 306 302 296 296 299 303 302 304 307 314 323 328 330 330 330 330 330 330 331 331 331 331 331
311 313 316 315 316 316 317 318 322 323 322 326 327 330 332 334 334 334 334 334 333 332 331 330 331 330 330 329 328 327 327 326 325 326 326 326 326 326 326 326 327 326 324 324 323 322 321 321 320 320 319 318 317 316 315 314 313 311 310 309 308 307 305 302 295 296 298 303 298 305 307 320 323 327 328 328 329 328 328 329 329 329 329 328 329
308 310 313 314 316 315 316 316 317 318 319 320 319 326 328 331 332 332 332 332 332 331 330 330 330 329 329 328 327 325 324 324 324 325 325 324 324 324 325 326 326 325 323 322 321 320 319 318 318 318 317 317 316 314 313 312 310 310 309 307 305 303 301 298 294 294 297 298 298 300 308 318 322 326 326 327 327 326 327 327 327 327 327 327 328
307 309 311 312 314 314 314 315 316 316 316 316 318 319 325 325 328 330 330 331 330 330 329 328 326 326 326 324 322 318 318 317 320 319 322 322 323 320 324 323 323 323 322 321 320 319 318 316 315 315 314 314 314 313 311 310 309 308 307 305 302 299 293 292 292 294 294 297 301 299 313 317 321 325 326 326 325 325 325 326 326 326 326 327 327
307 308 309 311 312 313 313 314 313 314 314 314 315 316 320 323 324 325 326 328 328 328 327 324 320 319 317 315 313 309 307 309 309 308 315 310 317 319 322 322 322 321 320 320 319 318 316 315 313 312 310 308 307 308 308 308 307 306 304 301 298 292 292 292 292 295 294 295 298 301 313 316 319 323 324 325 324 324 325 325 325 325 326 326 326
308 308 308 310 311 311 313 312 311 311 311 313 313 314 315 321 316 318 318 322 322 322 320 314 313 308 311 307 304 306 304 302 304 310 306 309 312 317 320 321 320 319 318 318 318 317 316 314 313 311 309 306 301 292 294 302 304 303 301 298 292 291 291 291 291 292 293 294 297 306 312 316 318 321 323 324 323 323 323 324 324 324 325 325 325
307 307 309 308 310 311 310 311 311 310 310 310 311 312 313 314 312 314 315 317 316 314 310 309 305 304 301 300 301 301 300 300 301 304 305 311 310 315 319 319 318 317 317 317 316 315 314 313 311 309 306 302 292 290 289 289 291 297 296 291 289 290 290 290 291 290 291 295 293 308 311 314 317 319 322 322 322 322 323 323 324 324 324 325 325
309 310 310 308 308 309 310 311 310 308 309 309 309 310 310 310 311 311 312 312 309 307 305 303 302 300 298 297 297 298 298 299 308 309 309 304 309 313 316 316 316 316 315 313 313 312 311 310 308 305 299 294 290 289 290 289 289 289 289 289 288 289 289 290 289 289 290 293 295 306 309 313 315 318 320 321 322 322 322 323 324 324 324 323 324
309 307 305 307 307 309 309 309 309 307 308 308 309 309 309 308 308 308 308 306 305 303 302 300 299 297 296 296 295 297 297 299 299 299 298 298 295 295 296 297 296 296 299 292 293 294 292 290 292 293 290 291 290 289 289 289 290 289 289 288 289 288 288 289 288 288 289 289 295 305 307 310 313 316 318 320 321 321 321 322 323 323 323 323 324
303 305 308 308 307 308 308 308 307 306 307 308 308 309 308 308 306 306 305 303 303 301 299 298 296 295 294 295 296 296 297 297 295 294 294 292 291 290 290 290 290 291 292 289 289 289 289 289 289 289 289 289 289 289 290 290 288 288 288 288 288 287 288 287 287 287 288 289 292 303 305 308 311 314 316 319 320 321 320 321 322 322 322 322 323
302 306 307 307 307 307 307 307 307 306 305 306 306 306 306 307 306 304 304 302 300 300 297 295 295 294 294 295 295 295 295 294 293 292 291 290 289 288 288 288 289 288 290 289 289 289 288 288 288 288 288 288 288 288 288 287 287 288 288 287 287 287 287 287 287 287 287 288 292 300 304 306 310 312 315 318 319 320 320 320 321 321 321 322 321
300 302 304 305 305 306 306 306 307 306 305 304 305 305 304 304 303 304 303 302 300 299 297 295 294 294 294 295 296 295 294 293 292 290 290 288 288 288 288 287 288 288 289 289 289 288 288 288 288 287 288 288 288 287 287 287 286 286 287 287 287 287 287 286 287 287 287 287 289 295 302 305 307 310 313 316 317 319 320 319 321 321 321 321 321
300 301 302 303 304 305 305 306 306 306 305 304 304 304 303 302 301 301 301 302 299 299 297 295 294 294 294 295 295 294 292 292 291 290 288 289 288 288 287 287 288 288 289 288 288 288 287 287 287 287 287 287 286 287 287 286 286 286 286 286 286 286 286 286 286 286 286 287 287 292 299 302 306 308 311 314 316 317 318 319 320 320 320 320 320
300 301 300 301 302 303 304 305 306 306 305 303 304 303 302 301 301 301 300 301 298 297 295 294 294 293 293 294 294 294 293 292 291 289 289 288 287 287 288 287 287 288 288 288 288 287 287 286 286 287 287 286 287 288 287 286 286 286 286 286 286 286 286 286 286 286 286 287 287 289 295 299 303 306 309 311 314 315 316 317 318 319 319 319 319
299 299 300 300 300 300 302 304 305 305 304 303 303 303 301 301 301 300 298 299 297 296 295 294 293 293 294 293 293 293 292 291 290 289 288 288 287 287 287 287 287 287 287 288 287 287 286 287 287 286 286 286 286 287 285 286 285 285 286 285 285 286 286 286 286 286 286 286 286 287 290 296 300 302 306 309 311 313 314 315 315 316 317 317 316
299 299 300 299 298 299 300 302 303 304 303 302 303 302 301 301 300 298 298 297 296 295 295 294 294 294 293 293 293 292 292 290 290 289 289 288 287 286 286 286 286 287 287 287 287 287 286 286 286 286 286 286 286 285 285 284 284 285 285 285 285 285 285 286 286 286 286 286 285 286 287 291 295 299 302 306 310 311 311 311 311 312 313 313 315
300 300 299 298 298 298 299 300 302 302 302 302 302 302 301 300 299 298 297 296 295 294 294 294 293 294 293 293 292 292 292 291 290 290 291 287 287 286 286 287 287 287 287 287 287 287 287 287 287 286 285 285 285 285 286 284 284 284 284 285 284 285 285 285 285 285 285 285 285 286 287 289 288 295 298 302 305 308 309 308 308 309 310 312 314
300 299 297 298 299 299 299 299 299 301 301 301 301 301 300 299 298 297 297 295 295 294 294 294 293 293 293 292 292 292 291 290 290 289 289 287 286 286 286 286 286 286 287 287 286 286 286 286 286 287 289 285 284 284 284 284 284 283 284 284 284 284 284 284 285 285 285 285 285 285 286 286 287 289 292 297 300 305 306 306 306 306 308 309 310
299 298 298 299 298 298 298 298 298 299 300 300 300 300 299 298 297 296 295 295 294 294 294 294 293 293 293 292 292 292 291 290 290 290 288 287 286 285 285 285 286 286 286 286 286 286 286 286 285 284 283 284 284 286 284 284 284 284 284 285 284 285 284 284 284 284 285 285 285 285 286 286 287 289 291 288 293 298 302 303 303 304 306 307 308
299 300 299 298 298 297 298 297 297 297 298 299 299 299 298 297 296 296 294 294 294 293 293 293 293 292 293 292 291 292 291 290 290 290 289 287 287 286 285 285 286 286 286 285 286 285 286 286 284 284 283 283 284 283 283 283 284 284 284 283 283 286 283 283 284 285 285 284 285 285 286 286 287 289 292 288 288 292 298 299 300 302 304 305 306
300 300 299 298 297 297 297 297 296 297 297 298 298 297 296 295 294 294 293 294 294 293 293 293 292 291 292 292 291 292 291 290 290 289 289 288 287 286 285 285 286 285 285 284 285 286 286 285 284 285 283 283 283 282 283 283 283 283 283 282 283 284 283 283 285 284 285 284 284 284 285 285 288 291 286 287 287 287 293 296 297 298 300 302 303
299 299 299 298 298 297 296 297 297 297 297 297 297 296 295 294 293 292 293 293 293 293 292 292 292 292 291 292 291 292 291 290 289 289 289 288 287 286 285 285 286 284 284 284 284 285 284 284 283 282 282 283 282 282 282 283 283 283 283 282 282 282 282 283 285 287 283 284 284 284 283 283 284 285 285 285 285 285 286 290 293 293 295 299 301
298 298 298 298 298 297 296 296 296 296 296 296 296 295 293 292 290 291 291 291 292 291 291 291 291 291 291 292 291 291 291 290 289 289 288 288 287 286 285 285 285 284 284 284 284 285 284 282 283 283 283 282 282 282 282 283 282 283 283 282 281 282 282 285 283 283 283 283 286 285 284 283 284 284 284 284 284 284 284 284 283 284 286 296 298
297 297 298 298 297 296 296 296 296 296 296 296 296 294 292 292 291 289 290 291 291 291 290 291 291 291 292 291 291 291 291 290 289 289 289 288 287 286 285 285 285 284 284 284 284 284 283 283 282 283 283 283 283 281 281 282 280 280 283 281 281 282 284 283 282 282 283 282 282 283 283 283 283 283 283 283 284 284 284 284 285 283 285 290 294
295 296 296 297 297 297 295 294 295 295 295 294 294 294 292 291 291 291 291 291 291 291 291 291 291 291 291 291 291 291 291 290 289 289 288 289 287 286 285 284 284 284 284 284 285 284 283 283 284 284 282 280 281 280 281 280 280 280 279 280 281 282 286 283 281 281 282 282 282 282 283 283 282 283 282 283 283 284 284 283 283 283 284 285 286
294 294 295 297 297 296 295 295 295 295 295 295 295 294 294 293 292 292 292 292 291 291 290 291 291 291 291 291 291 291 290 290 289 289 288 288 286 286 285 285 284 284 284 283 283 285 283 283 284 281 280 280 280 280 281 280 280 278 280 280 279 279 283 281 281 281 281 282 281 282 282 282 282 282 283 283 283 283 283 282 282 283 284 285 284
295 295 295 295 295 295 295 295 294 294 295 295 295 294 294 294 293 292 293 291 292 291 291 291 291 290 290 290 290 290 290 289 289 289 288 288 287 286 286 285 284 285 284 283 284 283 283 283 283 282 280 280 281 281 280 278 278 279 279 279 278 279 282 279 279 280 281 281 281 282 282 282 282 282 282 282 282 282 282 282 282 282 283 284 283
292 291 292 294 295 295 295 294 294 294 294 295 295 294 294 292 291 289 290 289 289 290 289 289 289 289 288 289 289 290 289 289 289 289 289 288 287 286 286 285 284 285 284 283 283 283 282 283 282 282 282 280 279 280 282 280 278 280 280 278 276 278 277 278 277 279 279 279 280 281 282 281 280 281 281 281 281 281 281 282 281 281 282 283 282
292 292 293 294 295 295 295 294 294 294 294 294 294 293 292 290 288 288 288 287 288 288 287 286 288 289 289 288 289 289 289 289 289 289 289 288 287 287 286 285 284 284 284 284 284 284 283 284 283 282 281 282 279 279 281 280 279 281 280 276 276 279 277 277 276 276 277 280 280 279 283 279 280 281 280 280 280 280 281 281 281 281 281 282 281
291 292 293 294 294 294 293 293 293 293 293 293 294 293 292 291 289 288 287 288 287 287 288 288 287 288 289 289 289 289 289 289 289 288 288 288 287 286 286 285 284 284 284 284 284 283 282 283 282 282 281 280 281 280 279 281 280 281 278 277 279 278 276 275 277 278 278 279 278 279 279 278 279 279 280 279 279 280 281 280 280 281 281 281 281
291 291 290 291 291 292 292 293 293 293 293 293 293 293 292 291 291 291 291 290 290 289 291 290 289 290 290 289 289 288 289 289 288 288 288 288 287 286 286 285 285 284 284 283 283 283 283 283 283 281 281 282 281 279 280 279 279 279 279 278 280 279 278 278 276 276 277 276 277 278 279 277 278 278 279 279 279 279 279 280 279 280 280 280 280
290 288 289 289 290 291 291 292 292 292 293 293 293 293 292 291 291 291 291 291 291 290 290 290 290 290 289 289 288 288 288 289 288 287 287 287 287 286 285 285 285 284 284 283 283 283 283 283 282 282 280 282 282 282 279 279 280 279 279 279 279 278 277 277 277 276 275 275 276 276 277 276 277 277 279 279 278 278 278 279 279 279 279 280 281
287 287 288 289 289 289 290 290 291 291 292 292 292 292 292 292 291 291 291 291 291 290 289 290 289 289 288 288 287 287 287 288 288 287 287 287 287 286 285 285 284 284 284 283 283 282 282 282 282 281 280 281 280 280 281 279 279 279 278 277 277 277 277 277 277 277 276 275 275 275 276 276 277 278 278 277 278 278 279 279 280 281 281 281 280
284 286 286 286 286 286 288 288 289 290 291 291 292 292 292 291 291 291 290 290 289 287 287 287 287 287 288 287 287 287 287 287 287 286 286 286 286 285 285 285 284 284 284 283 282 281 282 282 282 282 281 281 279 280 281 280 280 280 280 279 277 277 276 276 276 276 276 275 276 275 275 276 275 276 277 277 277 278 278 279 278 278 278 279 279
283 284 285 285 285 285 285 287 287 289 289 290 290 291 291 291 291 291 290 290 289 287 286 286 286 286 287 287 287 287 286 286 286 285 286 286 285 285 285 284 284 284 284 283 282 282 282 282 282 281 281 281 280 280 281 279 279 279 279 279 279 279 278 276 276 276 276 275 274 274 275 276 275 275 276 277 279 278 278 278 278 278 278 278 278
Wind_Speed
8 9 7 8 12 16 16 16 14 14 13 13 12 11 10 9 10 9 9 8 8 9 10 10 10 9 9 8 8 7 8 7 7 7 7 7 6 6 6 5 5 5 5 6 6 6 7 8 8 10 10 10 12 11 12 12 13 13 15 15 15 14 14 15 14 14 14 14 14 15 14 14 14 11 10 11 11 10 10 9 8 6 6 7 12
15 9 7 7 13 15 16 17 17 15 14 13 12 12 12 11 10 10 10 10 9 10 10 10 10 10 10 9 9 8 8 8 8 8 8 7 6 6 6 6 5 4 5 6 6 7 8 9 10 10 11 14 14 14 14 16 16 16 15 15 14 14 14 14 14 14 14 14 14 13 13 14 14 13 10 11 11 11 10 9 8 5 3 9 10
8 8 6 7 13 13 14 15 16 17 16 15 14 13 12 12 12 11 11 10 10 10 10 11 11 11 10 10 10 10 9 9 8 8 9 9 8 7 6 6 5 5 5 6 7 9 10 11 13 14 15 16 16 16 16 16 16 15 15 14 13 14 14 14 14 14 14 14 13 12 13 13 13 11 10 11 11 11 10 10 9 8 6 11 9
9 6 5 7 11 12 13 14 15 15 16 15 15 14 13 13 13 13 12 11 11 11 11 11 10 10 9 9 9 10 10 9 9 9 10 10 10 10 9 9 9 8 8 9 10 10 12 13 15 15 15 15 15 15 15 15 15 15 14 14 13 13 14 14 14 14 14 14 13 11 6 7 8 11 10 10 11 10 9 9 10 11 12 11 12
8 6 5 5 7 10 13 12 14 14 14 14 14 14 14 14 14 13 12 11 11 12 12 11 11 11 10 10 10 10 10 10 9 9 9 9 8 8 9 9 10 11 11 11 12 13 15 15 14 15 14 14 14 15 15 15 14 13 13 13 13 13 13 14 14 14 13 13 13 9 6 6 6 10 9 9 10 10 9 9 11 12 12 13 12
7 6 5 5 5 7 11 12 14 14 13 14 14 14 14 15 14 13 13 13 11 11 12 12 12 12 12 12 11 10 10 9 9 8 8 7 8 8 8 8 10 12 12 13 13 12 13 14 13 13 14 14 14 14 13 13 13 13 13 13 13 13 13 13 13 13 12 12 12 6 6 6 5 5 10 8 9 10 10 10 11 11 12 13 12
7 5 5 5 5 5 9 11 16 15 14 14 14 13 13 13 13 13 13 13 12 12 12 12 12 12 12 11 10 10 9 9 8 8 8 7 7 7 7 9 11 10 10 11 13 13 12 12 12 13 13 12 13 13 13 13 13 13 13 13 13 13 13 13 12 11 11 8 5 5 5 6 5 4 10 8 8 9 10 10 10 10 11 11 12
5 5 4 5 4 6 8 10 14 15 15 14 14 13 13 13 12 13 13 13 13 12 13 11 10 10 10 9 9 9 9 8 7 7 8 8 7 7 7 6 7 8 8 9 12 12 11 11 11 12 12 12 12 12 12 12 12 13 13 13 13 13 13 12 11 10 11 6 5 5 5 5 5 4 9 10 8 8 9 10 10 9 10 11 8
8 6 5 5 5 7 8 8 12 15 14 14 13 14 14 14 14 14 13 13 12 11 11 11 10 9 9 9 9 9 8 8 7 7 7 7 6 7 7 7 8 8 8 10 11 11 10 10 11 11 11 11 12 12 12 12 13 13 13 13 13 13 12 12 11 11 6 5 5 5 5 5 5 5 7 10 7 8 9 7 7 8 9 8 7
7 6 5 5 5 7 8 8 12 13 15 15 13 13 14 13 12 12 12 13 13 11 12 11 11 10 10 10 9 10 9 8 8 8 8 8 8 8 8 8 9 10 11 10 10 10 10 10 10 11 11 11 12 12 13 13 13 13 13 13 13 13 13 12 11 9 5 5 5 5 5 8 4 5 6 9 8 9 7 6 4 4 5 7 9
7 6 5 5 6 8 11 11 12 11 13 12 13 13 13 14 15 15 13 14 15 13 14 12 12 12 12 12 11 10 10 10 9 9 9 9 9 8 8 8 10 10 10 10 10 10 10 10 10 11 12 12 12 13 13 13 13 13 13 13 13 13 13 12 10 5 5 6 6 6 6 10 5 5 10 9 9 9 8 7 7 8 9 10 10
7 5 5 4 7 10 11 12 12 13 14 13 14 14 14 14 14 12 13 13 13 13 11 11 11 11 11 11 11 10 10 10 11 10 10 10 9 9 8 9 10 10 10 10 10 10 10 11 11 11 12 12 12 13 13 13 13 13 13 14 13 13 13 12 7 6 5 6 6 6 6 6 6 6 13 12 11 12 12 12 11 10 11 12 14
7 6 5 4 5 9 11 14 11 14 15 15 15 16 15 15 15 13 13 14 13 12 13 12 12 12 12 12 12 12 12 12 12 11 11 10 10 9 9 9 10 10 10 10 10 10 11 11 12 12 12 12 12 12 13 13 13 13 13 13 13 13 12 12 6 6 6 6 5 6 6 6 6 10 12 12 12 12 13 14 14 14 14 15 14
8 7 5 5 5 8 11 12 12 13 15 15 16 16 16 15 15 15 15 14 13 13 13 13 13 13 13 12 13 13 13 13 13 12 12 11 10 10 10 10 10 11 11 11 11 11 11 12 12 12 12 12 12 12 12 13 13 13 13 14 13 13 12 8 7 5 5 6 5 6 6 6 5 12 12 12 11 12 12 12 12 12 14 15 14
9 7 6 5 5 6 11 10 11 12 13 14 15 16 16 16 15 15 15 15 15 14 14 14 13 13 13 13 13 14 14 13 13 13 12 12 12 11 11 11 12 12 12 12 11 12 12 12 12 12 12 12 12 12 12 13 13 14 14 14 13 13 12 5 5 5 5 5 5 5 6 5 10 12 12 11 12 12 12 12 13 14 14 13 14
6 7 5 5 5 5 6 8 12 10 11 12 12 13 14 15 15 14 15 15 15 15 14 14 14 14 14 14 14 14 14 13 13 13 13 13 12 12 13 13 13 13 13 13 12 12 12 12 12 12 12 12 12 12 13 13 14 14 14 14 14 13 12 7 5 5 5 5 5 4 5 5 12 11 11 12 12 12 11 11 12 13 13 13 13
5 6 6 6 5 5 5 5 7 10 10 12 11 11 12 13 13 15 14 15 14 14 14 14 14 14 14 15 14 13 14 14 14 14 13 13 13 13 13 13 13 13 13 13 13 13 13 13 13 12 12 12 13 13 13 13 14 14 14 14 14 13 12 9 6 5 5 5 4 5 5 4 10 11 11 11 11 11 11 11 12 12 12 13 13
4 5 7 6 6 5 5 5 6 6 6 9 11 11 11 13 12 13 13 13 13 15 15 15 15 15 15 15 13 13 14 14 14 14 14 14 14 14 14 14 14 14 14 14 14 13 13 13 13 13 13 13 13 13 13 13 14 14 13 13 13 13 12 10 5 5 5 5 5 4 5 8 12 10 10 11 11 11 12 12 13 12 12 11 11
3 4 4 5 6 5 5 5 5 5 6 6 5 7 11 11 12 13 12 12 12 13 15 14 13 14 14 13 12 11 11 12 12 14 14 13 13 13 14 15 15 15 15 14 14 14 14 13 13 13 13 13 13 13 13 13 13 13 13 12 12 11 11 7 5 5 5 5 5 6 5 12 11 11 10 11 11 11 11 11 11 11 10 10 10
4 4 5 5 5 6 5 6 6 5 5 5 5 5 9 10 11 11 12 11 12 12 13 12 12 12 12 11 11 8 8 7 10 8 12 13 11 7 13 14 15 15 15 15 15 14 14 14 13 13 13 13 13 13 13 13 12 12 12 11 10 9 6 5 4 5 5 5 4 5 7 12 11 10 10 10 11 11 11 10 10 10 10 10 9
4 6 6 6 6 6 6 6 5 5 5 5 5 5 6 9 8 10 11 12 12 12 12 11 10 10 9 9 8 5 5 5 6 4 7 5 8 9 11 14 14 15 15 14 14 14 14 14 14 14 13 13 12 12 12 12 12 12 11 11 9 6 5 5 5 4 5 5 5 5 11 10 10 10 10 10 10 10 10 10 9 9 9 9 9
8 7 7 7 7 7 8 7 6 6 5 6 5 5 5 7 5 6 6 8 10 10 9 6 7 6 9 7 5 5 5 4 4 6 4 5 6 9 11 13 14 14 14 14 14 14 14 13 13 14 13 12 11 6 6 8 11 10 10 9 6 5 5 5 5 5 4 4 5 7 12 11 10 10 10 10 10 10 10 9 9 8 8 8 9
8 9 9 10 8 6 6 8 7 6 6 5 5 5 6 6 5 6 6 7 7 6 6 6 5 6 5 5 5 5 5 4 4 4 4 7 5 8 10 12 14 14 14 14 14 14 14 14 14 13 12 11 6 6 5 6 5 8 7 6 5 5 4 5 4 5 5 3 4 9 11 11 11 10 10 10 10 9 9 9 9 9 9 9 9
12 11 10 6 7 9 9 8 8 7 7 6 6 6 6 6 6 6 6 6 6 6 6 6 6 6 6 6 6 5 5 6 6 8 7 5 6 7 10 10 11 10 11 9 11 13 14 14 14 12 8 5 5 5 5 5 6 4 5 5 5 4 5 4 4 4 5 4 4 11 11 11 11 10 10 9 10 10 9 9 9 9 9 9 9
9 5 5 10 11 10 8 8 7 7 8 7 7 7 6 6 6 6 6 6 6 6 6 6 6 6 6 6 5 5 5 5 4 5 5 4 4 4 4 4 4 5 7 6 6 6 6 6 6 6 5 5 5 5 4 5 4 4 5 4 4 3 4 4 4 4 5 5 4 11 11 11 10 11 10 10 9 10 9 9 10 9 9 9 10
5 8 13 11 11 10 9 8 7 7 8 8 8 6 7 7 7 7 6 6 7 6 6 6 6 7 6 6 6 6 6 6 5 5 5 5 5 5 4 4 4 5 4 6 5 5 5 5 6 6 5 5 5 4 3 3 4 4 4 4 4 4 4 4 4 4 5 5 5 11 11 11 11 10 10 10 9 9 10 9 10 10 9 9 10
10 13 9 8 8 9 10 8 10 8 9 7 6 7 7 7 7 7 8 7 6 7 7 6 7 7 7 7 8 7 6 6 6 5 5 5 5 4 5 3 5 5 4 6 5 4 6 6 6 6 4 5 5 4 4 3 3 4 4 3 3 4 4 4 4 5 5 5 6 12 11 11 11 11 11 10 10 10 10 10 10 9 9 10 10
5 9 9 9 10 13 11 10 10 10 9 8 8 8 7 7 7 6 7 7 7 7 7 7 7 7 7 7 7 7 8 7 6 6 6 4 5 4 4 4 4 4 3 6 7 5 5 6 5 4 5 4 5 3 3 3 3 3 4 3 3 4 4 4 4 4 3 4 4 8 11 11 10 11 11 11 10 10 10 10 10 10 10 10 11
12 12 10 10 13 12 12 13 11 11 9 9 9 8 7 7 7 7 8 7 8 7 7 7 7 7 6 7 7 8 7 7 7 6 6 5 5 5 5 5 4 4 4 4 5 6 5 5 5 5 4 4 3 3 3 3 3 3 3 3 3 3 3 3 3 3 3 3 4 6 11 11 11 11 11 11 11 11 11 10 11 11 10 10 11
18 11 11 12 9 10 14 16 14 13 11 9 9 9 9 9 9 9 8 7 8 7 6 7 7 8 8 7 8 7 8 9 8 6 7 6 5 4 5 5 5 5 4 5 3 6 6 5 5 4 5 3 3 3 3 3 3 3 3 3 3 3 3 3 3 3 3 4 4 4 10 11 12 12 11 11 11 11 11 11 11 12 11 10 11
10 12 13 11 8 10 13 13 13 11 10 12 10 11 9 10 10 8 8 9 8 7 7 7 7 7 8 8 7 7 7 7 8 8 6 6 6 6 5 4 4 4 3 4 3 4 5 5 6 6 5 5 4 3 4 4 3 3 3 4 3 3 3 3 3 3 3 3 3 4 4 10 11 12 12 12 12 12 12 12 12 12 11 11 11
12 17 13 8 10 14 13 13 14 13 13 13 11 11 12 12 10 9 9 8 8 8 8 8 8 8 7 8 7 8 7 7 8 8 7 7 7 6 5 5 5 4 4 4 5 3 4 4 4 4 4 4 5 3 2 4 4 4 3 3 2 3 3 2 3 3 2 3 3 3 4 4 9 12 12 13 13 13 13 13 13 12 12 12 11
14 14 9 10 15 14 13 14 14 14 15 15 14 13 11 10 10 10 9 9 9 8 9 9 9 8 7 8 8 8 7 9 8 9 7 7 6 6 6 5 5 5 3 4 4 4 5 5 5 3 4 4 4 3 2 3 4 3 3 3 2 3 2 2 2 2 3 3 4 3 4 4 4 7 11 13 13 14 14 14 14 14 13 13 13
11 8 8 15 14 9 10 9 13 16 17 14 12 11 12 11 10 9 9 9 9 9 10 8 8 8 8 8 8 8 8 7 8 7 7 7 6 6 6 6 5 4 4 5 6 5 6 5 5 5 3 4 5 2 3 4 3 3 4 2 3 2 2 2 2 2 2 3 2 3 3 4 4 4 4 9 13 14 14 14 15 15 14 14 13
8 9 16 19 10 12 10 11 14 16 15 15 15 14 12 11 11 10 10 10 9 10 9 8 8 8 8 8 9 8 8 8 8 9 8 7 7 6 6 6 5 4 5 5 5 5 5 6 6 6 4 4 4 3 3 4 3 5 3 2 3 2 2 3 2 3 3 2 3 4 4 4 4 4 5 5 7 11 14 15 15 15 15 14 13
15 16 14 8 13 13 13 13 13 16 16 17 16 14 13 12 10 10 9 10 9 10 9 10 9 8 8 8 8 8 8 9 9 8 8 7 7 7 6 5 5 5 5 5 4 6 5 5 3 5 7 3 4 3 2 3 2 3 2 3 2 2 3 3 3 3 2 3 5 4 4 4 4 4 4 5 5 6 13 14 15 15 15 14 13
15 13 13 12 12 14 15 16 17 20 18 16 13 11 11 11 11 11 11 10 10 10 9 8 8 9 8 9 9 9 9 9 9 9 9 8 7 7 6 6 5 6 6 5 5 4 5 5 3 0 2 5 4 4 1 1 3 3 2 3 3 3 3 3 2 2 2 5 4 4 4 4 3 5 5 5 5 5 8 12 12 13 14 14 13
11 13 13 15 16 14 14 15 14 14 13 14 14 13 11 9 8 8 9 10 10 8 8 8 9 9 8 9 10 10 9 9 9 9 8 8 7 7 6 6 6 6 6 5 5 4 3 4 5 2 2 4 4 4 3 1 2 3 4 4 4 4 3 4 3 3 5 5 4 4 3 3 4 4 5 5 4 5 4 7 10 11 12 13 13
10 12 12 13 10 11 12 14 14 14 13 12 11 9 8 6 5 6 7 8 7 7 7 8 8 8 10 10 11 10 10 10 10 10 9 9 8 7 7 7 6 6 6 6 5 4 4 3 5 4 2 2 4 3 3 3 3 4 5 4 3 3 3 3 3 5 5 4 4 3 3 5 4 4 5 5 5 5 5 5 6 6 6 12 14
10 10 12 12 13 11 11 11 12 12 11 10 10 10 9 10 10 6 6 9 8 8 7 9 8 10 11 11 11 11 10 11 11 10 10 9 9 8 8 7 7 7 8 8 7 7 8 6 5 6 6 3 3 1 1 4 4 6 4 4 4 3 4 4 4 4 3 4 4 2 5 3 5 4 4 4 5 5 6 6 6 6 5 8 13
9 10 12 13 14 15 13 15 13 12 12 12 12 13 14 11 8 12 14 11 11 11 10 10 11 11 11 11 11 10 11 11 10 11 11 10 9 8 8 7 7 7 8 9 7 7 5 5 6 3 5 4 1 1 1 2 5 3 3 5 5 3 1 2 4 5 4 3 3 4 3 5 4 5 3 4 6 6 6 6 6 6 6 5 6
9 10 14 15 14 12 15 14 11 13 14 15 14 13 14 16 17 17 15 13 13 13 13 11 12 10 10 11 10 10 11 11 10 10 10 11 10 9 9 10 9 8 7 4 5 5 5 5 6 4 1 3 2 1 1 3 2 2 4 1 4 3 2 1 2 4 3 3 3 3 3 5 5 4 4 6 6 5 5 5 5 5 5 5 5
10 14 14 11 12 13 13 11 12 14 14 14 13 15 12 9 10 7 10 7 7 7 7 8 8 9 9 9 9 9 10 10 11 11 11 11 11 10 10 9 9 8 8 8 7 8 8 9 9 8 5 1 2 1 1 2 5 2 2 4 1 1 0 1 1 1 4 1 2 4 3 5 4 4 5 5 5 5 4 4 4 5 5 4 4
7 6 8 11 10 12 11 12 13 13 13 14 14 10 9 6 3 3 4 4 5 4 4 5 6 7 9 10 10 11 11 11 11 11 10 11 12 12 10 10 10 9 10 10 10 10 9 8 8 6 7 5 2 1 0 1 5 8 1 1 1 1 2 2 2 3 1 2 2 3 2 3 3 4 6 5 4 5 5 4 5 4 4 4 3
9 10 10 11 10 14 13 13 11 13 11 12 12 10 9 7 6 6 6 6 5 6 5 5 8 8 8 10 11 10 12 12 12 13 12 13 11 11 11 11 10 10 9 9 10 12 12 11 10 8 9 9 7 2 1 1 1 1 7 5 2 0 4 1 1 2 2 1 1 2 1 3 3 4 5 4 3 4 4 4 4 4 4 4 3
10 10 10 11 8 9 9 9 8 9 10 11 12 11 12 12 12 10 10 9 9 10 14 16 11 13 15 10 10 13 13 12 11 12 12 11 12 12 11 11 11 10 10 10 9 7 8 10 11 10 9 5 8 6 3 0 0 1 0 1 3 3 4 3 2 2 1 0 2 2 1 2 1 4 4 3 3 4 3 3 3 4 4 4 3
12 7 6 7 8 8 10 12 11 10 10 11 13 11 11 12 15 16 15 16 17 14 12 10 13 11 9 11 11 9 10 12 11 11 11 11 11 11 11 11 11 11 9 8 9 11 11 11 8 8 8 7 7 6 10 6 2 1 2 3 4 2 5 7 5 2 1 1 0 0 1 1 1 2 2 3 1 3 4 2 3 4 4 3 3
6 3 5 5 8 9 10 12 10 11 11 12 14 14 14 13 13 13 12 13 15 13 11 11 10 9 10 10 9 10 10 11 11 11 11 12 11 11 11 11 11 10 10 11 11 9 7 5 7 7 5 7 9 10 8 9 9 5 2 4 4 5 4 5 3 6 4 1 1 1 1 2 2 2 1 2 1 2 4 3 3 4 4 4 2
5 4 5 5 5 5 7 8 10 10 10 13 14 14 13 14 14 13 13 11 9 6 6 5 8 8 10 8 9 10 10 10 10 11 11 11 11 11 11 11 11 11 10 9 8 8 10 10 9 8 8 7 6 5 10 10 7 9 7 2 5 5 5 3 2 3 4 4 5 2 4 3 2 3 3 2 2 2 3 3 4 4 3 3 2
4 2 2 2 4 4 6 7 9 9 10 12 13 14 14 12 12 13 14 10 7 4 7 8 8 8 10 10 9 9 10 10 10 10 10 11 11 11 11 12 12 11 10 10 9 8 8 8 10 10 8 8 5 7 10 9 7 7 8 10 6 4 4 2 1 3 1 1 4 4 3 2 3 2 2 2 3 4 4 4 5 3 3 3 2
4 2 1 1 3 4 5 7 7 7 9 13 14 16 14 14 14 15 15 14 11 9 9 9 8 8 11 11 10 10 9 10 9 9 11 11 11 11 12 12 10 10 10 10 11 10 10 9 8 6 7 9 8 7 4 5 6 7 7 10 11 12 11 8 9 6 5 4 2 3 3 4 3 3 3 1 1 4 5 5 4 5 3 3 2
Wind_Direction
219 192 188 194 190 174 174 180 182 177 177 177 175 171 170 168 165 160 159 166 167 165 163 161 163 161 160 158 152 145 140 131 121 113 102 100 100 100 93 95 96 92 96 93 85 86 87 87 82 79 79 74 72 67 62 60 61 61 56 48 37 30 27 24 23 22 20 20 22 26 23 22 23 51 75 72 70 64 60 54 52 42 38 23 34
178 196 182 183 176 175 176 173 175 178 178 179 177 175 172 172 170 164 166 170 171 166 163 164 161 160 160 156 152 146 140 131 124 117 109 104 98 100 95 86 90 99 95 87 89 86 82 80 78 74 68 63 60 60 60 57 57 55 51 48 40 31 28 26 23 22 22 22 22 21 20 18 18 26 65 74 69 62 56 55 56 58 47 41 37
151 171 176 181 175 173 175 175 174 177 177 177 177 176 174 172 170 168 170 175 172 169 166 165 163 158 161 157 152 142 134 126 117 109 105 98 88 76 79 83 74 67 91 97 91 85 78 75 71 67 64 64 63 58 55 53 53 52 50 47 42 36 30 29 25 22 21 22 24 22 20 13 10 31 52 66 68 59 51 52 47 42 33 37 35
153 176 168 183 178 166 169 175 176 178 177 176 175 174 174 172 168 170 172 176 172 167 165 163 159 157 151 143 135 128 120 113 105 104 105 95 84 75 72 73 71 71 79 82 79 78 80 77 70 66 61 60 60 59 57 53 52 49 47 45 42 37 33 29 27 25 22 20 23 27 21 11 3 18 49 60 64 60 56 54 47 42 38 35 32
160 168 173 176 174 171 167 167 174 176 177 175 173 170 172 168 170 170 171 173 174 167 163 158 150 146 140 134 127 123 119 116 113 110 105 102 93 84 81 83 85 85 84 88 91 91 82 74 70 69 67 64 62 61 58 55 53 52 48 44 41 37 34 31 29 27 25 23 22 27 16 11 7 356 48 57 61 61 60 54 50 45 38 33 30
164 171 170 172 163 172 167 164 165 168 168 169 170 170 169 167 167 166 168 170 170 166 159 151 149 146 141 137 133 125 122 116 117 118 114 114 102 90 91 95 95 93 96 95 87 85 82 79 75 72 69 67 66 65 64 61 57 52 48 45 41 37 34 32 32 30 28 25 22 17 9 11 2 351 24 50 47 50 52 53 54 51 42 35 30
162 167 167 165 161 169 170 172 166 163 163 166 168 165 166 166 163 165 165 162 164 156 154 149 147 145 142 136 134 120 117 123 126 131 117 126 116 110 105 107 100 100 99 101 93 83 80 79 77 75 73 70 70 68 64 61 59 55 50 45 41 38 34 33 33 34 35 31 17 12 4 3 4 356 0 54 55 51 47 47 49 49 47 40 35
158 164 165 162 157 177 167 181 170 168 166 166 167 162 162 165 164 162 157 158 158 157 152 152 150 148 142 143 138 133 127 131 134 131 140 135 137 133 129 104 108 109 105 98 87 83 81 84 84 82 79 76 71 68 66 64 60 58 54 49 45 41 39 37 35 37 42 36 23 11 359 5 3 1 346 38 52 55 44 44 43 43 46 46 41
167 169 161 158 163 170 172 183 173 174 173 170 172 170 166 164 167 165 163 161 157 159 160 152 152 160 160 156 154 145 144 132 141 152 144 145 152 149 142 135 119 124 107 85 84 85 81 81 81 80 80 77 73 69 66 63 61 59 57 55 53 49 45 41 37 37 36 32 21 13 0 8 5 355 334 28 45 55 49 37 31 36 43 45 47
168 164 163 159 165 168 177 182 177 183 185 177 179 183 177 172 172 177 175 172 171 163 173 168 173 176 175 179 169 174 161 155 159 165 161 154 153 147 143 140 132 111 95 92 87 86 85 81 80 80 79 75 71 68 65 62 61 59 58 56 55 53 50 45 41 35 31 22 22 17 4 15 0 355 343 28 43 61 50 28 21 32 39 39 38
165 169 164 165 170 170 180 183 182 190 191 192 186 192 192 183 195 187 189 190 200 182 197 191 192 187 191 181 178 170 175 171 169 163 160 159 158 148 148 128 106 102 100 99 99 97 94 89 85 83 79 76 73 70 67 64 62 59 57 57 56 53 51 48 45 33 25 23 21 18 359 8 3 332 18 23 47 53 42 34 31 28 34 33 29
170 170 170 170 176 175 182 189 185 189 196 194 194 197 194 198 196 194 191 194 193 192 188 187 187 187 182 183 180 174 169 162 158 157 156 158 158 154 133 112 109 105 104 104 103 101 99 96 92 89 86 83 78 75 72 68 64 61 59 57 56 54 52 49 47 36 29 21 24 12 2 0 354 351 26 44 53 52 49 47 37 36 43 39 37
175 172 172 174 179 183 187 189 191 191 194 194 196 196 197 195 193 189 191 190 191 186 184 185 182 181 178 175 171 167 164 158 158 157 153 149 146 139 129 123 117 112 111 107 106 106 103 99 97 92 90 87 83 79 76 73 70 65 61 59 57 54 53 53 45 39 33 22 22 11 4 354 342 19 29 43 55 58 51 49 48 45 49 49 44
168 175 177 176 179 189 192 189 186 192 196 191 193 195 195 193 191 189 190 190 189 186 186 182 179 177 175 172 168 166 163 161 156 154 152 148 144 140 133 127 122 117 113 110 109 108 106 103 99 95 91 88 85 82 79 77 74 70 66 61 56 53 50 48 46 42 36 27 15 11 4 354 341 27 30 35 44 48 49 43 41 38 39 40 36
169 176 177 178 180 188 194 191 183 193 195 192 191 193 193 191 191 190 192 191 191 187 184 181 178 176 172 173 170 168 165 161 157 154 151 149 144 139 134 128 124 120 117 114 109 104 101 98 97 95 91 89 86 83 80 77 74 71 68 63 58 55 53 46 43 38 35 29 13 10 3 349 1 27 30 31 35 45 41 39 39 37 35 37 36
169 171 174 184 187 187 189 196 185 197 194 187 188 191 190 192 193 192 192 191 190 186 184 182 179 176 175 174 172 166 162 160 158 153 150 147 143 138 135 130 125 122 118 115 111 107 103 97 95 92 89 87 85 81 77 74 72 68 65 63 59 56 52 53 44 34 30 27 13 11 356 345 3 23 30 32 33 39 41 35 34 36 34 32 30
169 170 173 188 192 193 190 198 190 195 193 182 194 188 186 192 193 190 191 190 188 185 183 182 181 178 177 176 168 163 161 158 155 153 149 146 143 138 135 131 129 126 121 118 113 108 104 100 96 93 89 85 82 78 76 73 70 66 62 59 57 55 53 51 48 35 24 25 17 4 349 338 7 22 29 33 33 34 33 34 35 33 31 29 25
182 180 186 185 192 196 193 196 190 189 190 184 193 185 188 187 189 189 189 187 186 185 185 183 181 177 175 173 164 162 160 158 156 153 150 146 140 138 136 132 128 124 120 116 113 110 107 104 100 97 94 90 85 82 78 75 72 68 63 58 54 52 49 49 49 35 26 27 15 354 344 5 15 25 29 32 34 34 31 29 30 29 30 29 27
200 207 204 189 197 193 197 195 191 184 188 181 184 189 189 189 188 187 186 183 181 183 184 183 175 176 173 165 159 158 158 155 154 153 148 142 140 139 137 133 130 126 122 120 118 115 112 107 103 99 95 90 87 83 79 76 73 70 67 63 57 54 50 43 39 32 27 22 11 1 341 15 18 24 30 32 33 33 33 32 33 32 32 30 28
213 215 214 213 199 194 196 196 191 186 183 179 182 181 190 190 188 183 180 180 182 181 178 172 168 168 163 156 154 151 142 140 139 138 141 143 140 138 138 136 133 129 127 124 122 120 115 111 107 101 95 90 85 81 79 76 72 68 65 62 59 57 51 46 40 36 23 17 12 340 7 19 21 25 31 33 34 33 32 32 32 31 31 30 30
224 222 213 208 207 198 198 194 195 185 181 177 179 179 185 181 181 176 176 177 180 175 171 162 160 156 145 140 129 120 118 116 110 115 115 119 137 139 137 137 132 130 127 124 121 119 116 112 109 104 99 92 84 76 75 76 72 69 65 61 57 51 45 46 40 35 26 10 5 336 19 21 23 28 33 34 37 36 34 34 33 34 34 30 30
205 212 219 210 201 205 196 191 188 193 179 177 177 176 179 171 167 171 172 175 176 170 160 148 138 129 128 125 126 127 122 121 121 117 124 125 126 136 138 135 131 127 126 124 120 117 114 111 107 103 98 91 85 74 62 63 68 69 67 65 58 54 45 44 43 35 27 5 359 354 17 20 22 26 33 34 38 37 35 34 35 37 38 39 37
215 214 214 206 204 197 195 193 192 183 179 179 178 178 177 166 168 169 170 168 167 150 142 138 134 135 130 132 131 128 129 128 128 128 129 128 126 128 132 133 131 128 125 123 121 117 113 110 105 100 92 84 73 72 70 65 54 56 55 52 55 47 46 43 45 38 26 3 344 9 16 19 21 24 29 34 37 39 37 38 37 39 39 40 42
215 207 204 193 198 201 200 194 187 180 178 181 176 179 178 168 168 167 166 158 147 145 142 142 141 141 141 139 137 138 132 137 139 134 126 121 120 116 122 122 119 110 108 108 110 112 108 103 99 91 81 74 74 66 68 61 59 52 51 50 51 42 41 38 35 29 23 9 345 17 17 18 23 22 27 35 38 39 40 40 41 43 42 42 43
208 182 185 201 202 200 192 197 187 181 180 180 178 183 175 164 170 169 163 155 147 146 148 148 150 148 147 146 148 142 143 143 133 122 116 112 102 93 88 94 95 98 93 97 89 83 81 87 82 80 78 82 79 69 69 66 56 55 56 49 56 50 46 38 31 28 16 6 351 17 18 19 23 21 25 31 37 38 42 41 43 45 42 44 44
173 192 209 201 199 197 194 189 184 188 189 182 183 175 165 176 177 175 160 159 156 155 154 157 156 158 155 153 148 142 146 139 136 136 128 126 122 122 118 115 118 120 116 115 109 112 103 102 104 96 87 88 85 78 66 79 76 64 60 51 49 46 41 35 30 25 14 4 354 10 17 19 22 24 24 28 34 36 43 38 43 45 45 46 46
200 215 202 204 194 194 196 184 191 185 193 181 174 175 186 181 174 173 166 173 163 160 168 168 170 164 162 162 155 157 152 149 147 148 147 139 139 142 146 144 140 136 147 127 117 111 113 108 103 100 95 89 82 76 73 64 69 75 63 58 49 46 41 33 24 22 11 5 356 3 15 20 21 25 25 25 34 36 41 39 40 45 46 45 45
212 220 204 200 194 197 192 188 193 186 188 181 179 184 183 178 181 176 181 169 166 176 174 175 166 171 170 170 162 161 158 156 160 156 159 144 151 151 146 143 142 138 133 126 122 112 108 107 110 106 104 101 106 99 90 84 75 80 84 67 57 49 43 33 27 19 12 7 4 355 12 17 25 28 26 28 35 36 39 40 40 42 44 44 43
226 214 206 204 202 192 187 195 191 191 186 179 187 186 179 180 179 184 187 176 179 180 175 166 173 174 176 171 164 160 163 160 161 163 147 156 151 149 152 150 140 143 129 120 127 130 123 126 123 123 115 114 109 111 107 95 93 91 95 80 67 59 47 36 28 20 18 15 8 358 11 15 23 31 31 32 39 38 42 41 39 39 38 40 39
222 207 205 213 195 185 192 196 192 189 185 178 192 184 185 186 190 190 183 178 186 177 169 178 178 172 178 180 176 168 169 166 161 155 157 162 159 151 148 153 150 148 138 143 148 137 142 131 126 126 128 129 126 142 128 119 96 89 84 80 63 56 46 40 27 23 16 19 13 6 9 13 15 24 29 36 39 42 43 39 38 36 34 35 33
210 216 211 207 190 186 201 195 192 188 181 190 191 193 182 195 192 185 180 188 179 171 180 182 179 184 180 175 175 173 164 161 159 159 159 158 160 158 159 150 150 165 155 147 143 146 142 146 149 149 147 143 138 146 147 119 108 78 68 72 61 57 42 25 29 22 30 20 20 19 9 15 17 21 21 31 39 42 44 40 38 36 38 36 28
203 220 211 183 187 201 196 191 191 189 186 194 191 192 193 195 188 184 191 186 170 180 182 183 187 186 177 178 176 172 165 164 160 161 162 161 164 163 159 160 176 169 163 154 153 146 143 134 129 132 141 135 129 128 143 116 92 77 74 71 64 66 48 30 36 35 33 33 29 30 26 21 19 24 24 26 32 39 43 40 38 37 35 29 27
219 220 196 186 201 197 192 194 189 190 192 195 195 196 192 190 188 193 189 180 180 180 185 189 189 185 178 178 176 170 170 165 167 165 163 162 158 159 166 178 174 169 162 156 145 139 130 131 124 128 118 119 113 101 109 94 83 63 73 67 75 59 46 52 46 46 39 38 41 37 41 35 28 25 25 29 29 34 39 38 37 35 32 29 24
216 200 183 206 203 190 194 186 191 194 197 195 194 194 194 192 192 190 185 181 185 185 191 188 185 183 181 179 176 175 170 167 160 162 156 157 160 167 170 178 173 168 159 151 153 157 146 135 139 119 112 112 103 94 96 65 42 64 63 54 71 62 53 65 53 50 51 55 44 54 44 42 40 40 35 28 30 32 36 38 37 33 29 24 22
204 192 202 212 181 196 184 193 193 197 194 196 196 198 192 192 188 189 187 186 185 189 189 184 184 184 177 180 179 176 171 168 167 160 161 161 164 169 177 180 163 162 164 173 157 155 148 141 142 118 103 91 92 77 82 89 67 53 37 44 47 48 49 64 60 56 55 55 59 52 48 46 46 55 50 43 35 29 39 40 39 33 28 25 23
207 209 209 187 197 195 190 196 189 196 197 198 197 195 193 191 190 187 186 185 186 192 189 188 185 175 180 180 181 176 172 171 167 162 160 167 170 177 178 162 168 163 169 167 156 158 151 136 140 141 121 107 107 70 52 83 71 65 37 49 39 55 56 51 58 60 47 67 58 54 49 52 57 59 61 59 55 37 43 46 42 36 30 26 27
210 206 201 194 200 194 193 195 193 197 198 196 193 194 190 190 189 188 188 185 190 193 190 181 178 179 181 180 180 180 175 172 170 167 162 168 171 173 170 167 164 168 166 169 165 166 153 141 142 174 122 146 134 125 64 78 73 71 54 54 37 47 53 46 54 61 55 63 60 54 53 52 59 59 60 63 58 53 42 49 45 39 28 25 26
215 209 203 196 201 192 195 198 200 196 193 192 192 190 188 183 185 186 186 190 195 192 185 178 184 181 178 186 180 180 176 174 171 169 167 169 170 169 163 164 165 165 164 165 167 154 140 144 132 86 122 125 136 133 139 127 79 72 62 50 32 48 38 43 37 45 61 61 55 57 58 59 64 55 54 55 54 51 50 44 43 37 26 23 25
211 206 202 203 196 194 194 199 196 191 189 187 184 178 169 171 164 171 183 191 195 192 180 184 186 180 188 184 179 182 178 176 173 169 165 167 167 168 167 170 165 165 161 163 159 160 149 151 142 116 85 90 127 155 152 135 77 71 68 46 43 43 33 56 52 56 46 44 52 54 55 43 57 44 45 46 44 47 45 40 38 32 19 20 27
209 199 202 199 200 195 196 197 196 185 181 175 169 174 172 177 179 167 184 201 192 184 187 192 182 190 191 183 185 184 179 177 173 170 167 167 169 173 170 166 169 165 168 170 176 178 170 154 152 137 124 81 45 67 93 108 72 70 73 50 45 50 72 69 64 50 49 45 38 46 59 50 54 48 49 48 49 43 39 30 29 22 22 16 25
210 199 200 202 199 197 185 198 189 180 178 177 181 178 180 181 184 195 200 190 188 187 190 194 192 196 189 188 185 184 178 174 174 170 174 169 170 165 163 170 172 175 180 189 179 170 168 158 146 133 132 119 82 22 240 125 117 66 21 53 41 26 33 74 61 39 28 25 46 60 59 60 36 39 29 51 45 37 32 25 20 19 16 14 17
219 203 205 204 200 192 193 194 177 184 187 187 185 186 190 189 185 192 193 185 183 187 197 195 197 192 189 188 186 182 177 178 174 175 172 170 169 171 174 176 175 182 182 165 167 168 158 158 157 105 32 132 149 197 200 125 40 142 148 17 10 354 23 22 21 9 358 7 24 53 56 69 44 26 28 42 31 27 24 21 21 18 12 14 15
208 203 210 199 197 196 201 185 187 185 190 187 183 194 191 189 191 190 189 186 199 203 198 189 180 185 186 184 183 181 178 179 177 177 173 178 175 172 182 173 177 170 166 173 177 180 179 175 181 157 131 56 130 188 148 201 139 129 111 90 14 48 324 350 349 17 342 336 12 49 47 69 51 44 45 42 22 13 13 16 18 17 10 9 9
224 219 210 204 200 202 195 189 190 189 187 189 190 185 178 170 151 108 142 133 166 155 153 154 174 166 184 183 188 183 181 182 178 180 180 179 178 180 173 175 179 179 177 174 181 186 182 185 188 189 153 134 170 187 108 189 143 138 79 107 188 115 325 263 300 290 331 25 47 59 36 67 62 50 42 33 11 4 1 7 12 9 7 4 4
222 217 205 203 201 202 196 190 187 189 189 184 180 164 146 135 118 90 99 88 79 135 145 189 189 188 184 192 192 181 184 184 183 185 182 182 181 179 177 180 177 181 179 182 186 191 188 187 182 176 190 155 178 168 191 71 119 274 143 110 69 66 218 212 48 290 351 70 19 8 36 40 66 65 46 11 10 11 355 358 1 360 356 355 357
234 225 210 210 198 195 186 183 179 181 184 180 173 166 172 167 160 159 168 177 181 180 195 196 182 190 200 186 186 191 187 187 184 185 187 180 182 182 179 176 180 179 186 190 187 176 189 188 193 189 190 207 149 155 132 152 134 83 192 132 159 171 180 224 127 240 320 317 300 314 337 6 112 69 47 18 7 349 350 341 2 347 342 343 343
239 229 221 210 201 190 184 182 180 179 177 174 172 172 176 182 186 188 186 187 193 205 200 186 187 195 185 188 192 187 190 185 187 186 187 184 181 181 182 182 182 185 184 180 186 194 192 196 183 191 196 162 141 145 162 169 111 24 51 75 85 80 130 132 199 89 312 301 289 335 190 351 5 49 29 358 326 355 323 340 345 333 330 325 331
247 217 223 214 200 193 180 181 179 178 178 173 178 180 182 185 190 196 197 201 204 201 185 191 187 178 181 183 178 187 189 192 186 188 188 185 182 183 183 182 184 187 182 191 193 192 189 197 191 196 179 187 175 159 165 167 162 183 113 88 78 76 64 74 113 159 159 181 283 314 290 335 13 312 293 305 298 321 312 325 333 323 317 313 319
274 224 222 217 209 198 186 180 182 177 176 175 178 186 187 187 192 194 203 213 208 192 166 163 173 171 182 177 179 184 188 194 190 188 189 187 186 184 182 185 187 187 188 190 194 189 191 185 184 185 193 199 197 164 150 181 171 160 139 75 84 65 57 58 79 80 134 141 264 278 276 329 10 311 313 311 257 286 285 302 308 300 299 303 319
323 286 246 199 202 190 189 182 187 180 174 177 182 186 189 184 192 200 204 203 188 156 155 169 174 171 185 184 185 182 189 190 194 190 186 190 188 183 185 189 189 185 187 191 186 187 194 197 194 192 188 187 190 175 176 173 178 159 167 149 135 107 63 42 48 113 71 129 176 199 229 236 299 285 307 316 307 299 300 299 296 286 279 274 288
356 4 331 202 187 184 185 192 195 183 182 183 182 188 189 190 197 198 199 196 186 167 166 177 169 174 190 189 188 191 185 193 186 191 194 189 190 187 188 191 187 184 187 186 191 190 193 194 194 192 194 186 184 184 161 160 155 160 163 167 166 170 171 173 183 183 161 151 120 221 241 250 205 316 291 309 263 278 283 284 273 284 271 280 298